TimeEST,TemperatureF,Dew PointF,Humidity,Sea Level PressureIn,VisibilityMPH,Wind Direction,Wind SpeedMPH,Gust SpeedMPH,PrecipitationIn,Events,Conditions,WindDirDegrees,DateUTC
12:15 AM,34.7,25.9,70,29.87,10.0,East,10.4,16.1,N/A,,Clear,80,2013-02-26 05:15:00
12:35 AM,34.7,25.7,70,29.88,10.0,East,12.7,-,N/A,,Clear,90,2013-02-26 05:35:00
12:55 AM,34.7,25.7,70,29.88,10.0,East,11.5,-,N/A,,Scattered Clouds,80,2013-02-26 05:55:00
1:15 AM,34.7,25.7,70,29.86,10.0,East,12.7,17.3,N/A,,Mostly Cloudy,80,2013-02-26 06:15:00
1:35 AM,34.5,25.7,70,29.83,10.0,ENE,13.8,18.4,N/A,,Mostly Cloudy,70,2013-02-26 06:35:00
1:55 AM,34.7,25.7,70,29.83,10.0,ENE,12.7,18.4,N/A,,Mostly Cloudy,70,2013-02-26 06:55:00
2:15 AM,34.7,25.3,69,29.81,10.0,ENE,12.7,20.7,N/A,,Mostly Cloudy,70,2013-02-26 07:15:00
2:35 AM,34.7,25.5,69,29.78,10.0,ENE,13.8,24.2,N/A,,Overcast,60,2013-02-26 07:35:00
2:55 AM,34.3,25.5,70,29.77,10.0,ENE,16.1,21.9,N/A,,Scattered Clouds,70,2013-02-26 07:55:00
3:15 AM,34.3,25.3,70,29.76,10.0,ENE,15.0,21.9,N/A,,Mostly Cloudy,70,2013-02-26 08:15:00
3:35 AM,34.2,25.3,70,29.75,10.0,ENE,11.5,20.7,N/A,,Overcast,70,2013-02-26 08:35:00
4:15 AM,34.7,24.8,67,29.72,10.0,ENE,16.1,24.2,N/A,,Overcast,70,2013-02-26 09:15:00
4:35 AM,34.7,24.6,67,29.70,10.0,ENE,16.1,26.5,N/A,,Overcast,70,2013-02-26 09:35:00
4:55 AM,34.3,24.8,68,29.66,10.0,ENE,16.1,27.6,N/A,,Mostly Cloudy,70,2013-02-26 09:55:00
5:15 AM,34.0,24.8,69,29.65,10.0,ENE,15.0,21.9,N/A,,Mostly Cloudy,70,2013-02-26 10:15:00
5:35 AM,34.0,24.8,69,29.65,10.0,ENE,12.7,24.2,N/A,,Overcast,70,2013-02-26 10:35:00
5:55 AM,34.2,25.3,70,29.69,10.0,East,12.7,19.6,N/A,Rain,Rain,90,2013-02-26 10:55:00
6:15 AM,33.8,26.2,74,29.70,5.0,East,9.2,-,N/A,Rain,Light Rain,80,2013-02-26 11:15:00
6:35 AM,33.3,27.3,79,29.67,4.0,ENE,12.7,-,0.05,Rain,Light Rain,60,2013-02-26 11:35:00
6:55 AM,32.9,27.5,81,29.66,4.0,ENE,12.7,19.6,0.11,Rain,Rain,60,2013-02-26 11:55:00
7:15 AM,32.9,28.2,83,29.66,3.0,ENE,10.4,-,0.04,Rain,Light Rain,70,2013-02-26 12:15:00
7:35 AM,32.5,28.4,85,29.63,4.0,ENE,13.8,19.6,0.09,Rain,Light Rain,60,2013-02-26 12:35:00
7:55 AM,32.4,28.4,85,29.60,3.0,ENE,11.5,20.7,0.13,Rain,Light Rain,60,2013-02-26 12:55:00
8:15 AM,32.4,28.4,85,29.56,2.5,ENE,13.8,19.6,0.03,Rain,Light Rain,60,2013-02-26 13:15:00
8:35 AM,32.4,28.4,85,29.56,2.0,ENE,12.7,21.9,0.08,Rain,Rain,70,2013-02-26 13:35:00
8:55 AM,32.4,28.9,87,29.55,2.5,East,11.5,-,0.12,Rain,Light Rain,80,2013-02-26 13:55:00
9:15 AM,32.5,29.1,87,29.52,3.0,ENE,11.5,-,0.02,Rain,Light Rain,70,2013-02-26 14:15:00
9:35 AM,32.9,29.3,87,29.51,2.5,ENE,10.4,16.1,0.03,Rain,Light Rain,70,2013-02-26 14:35:00
9:55 AM,33.1,29.7,87,29.59,7.0,Calm,Calm,-,0.03,,Overcast,0,2013-02-26 14:55:00
10:15 AM,33.1,29.8,88,29.56,2.5,East,4.6,-,0.04,Rain,Light Rain,90,2013-02-26 15:15:00
10:35 AM,33.1,29.8,88,29.54,2.0,East,5.8,-,0.10,Snow,Light Snow,80,2013-02-26 15:35:00
10:55 AM,32.9,30.0,89,29.52,2.5,East,4.6,-,0.14,Snow,Light Snow,80,2013-02-26 15:55:00
11:15 AM,33.1,30.2,89,29.52,1.8,East,4.6,-,0.07,Snow,Light Snow,80,2013-02-26 16:15:00
11:35 AM,33.1,30.6,90,29.50,3.0,East,5.8,-,0.11,Rain,Light Rain,80,2013-02-26 16:35:00
11:55 AM,33.4,30.7,90,29.48,4.0,East,8.1,-,0.12,Rain,Light Rain,80,2013-02-26 16:55:00
12:15 PM,33.6,30.7,89,29.48,3.0,East,6.9,-,N/A,Rain,Light Rain,80,2013-02-26 17:15:00
12:35 PM,33.8,31.1,90,29.46,2.5,East,8.1,-,N/A,Snow,Snow,90,2013-02-26 17:35:00
12:55 PM,34.2,31.6,90,29.45,2.0,East,8.1,-,N/A,Snow,Light Snow,90,2013-02-26 17:55:00
1:15 PM,34.7,32.0,90,29.43,3.0,East,10.4,17.3,N/A,Rain,Light Rain,80,2013-02-26 18:15:00
1:35 PM,35.6,32.2,87,29.42,4.0,East,12.7,-,0.01,Rain,Rain,80,2013-02-26 18:35:00
1:55 PM,35.8,32.5,88,29.41,4.0,East,12.7,-,0.01,Rain,Rain,90,2013-02-26 18:55:00
2:15 PM,36.5,33.1,87,29.40,4.0,East,10.4,-,N/A,,Drizzle,80,2013-02-26 19:15:00
2:35 PM,36.5,33.3,88,29.39,4.0,East,8.1,-,N/A,,Drizzle,80,2013-02-26 19:35:00
2:55 PM,36.7,33.4,88,29.39,2.0,East,6.9,-,N/A,Rain,Rain,80,2013-02-26 19:55:00
3:15 PM,36.9,33.8,89,29.39,2.5,East,6.9,-,N/A,,Drizzle,80,2013-02-26 20:15:00
3:35 PM,37.0,34.0,89,29.39,1.8,ENE,4.6,-,0.01,Rain,Rain,70,2013-02-26 20:35:00
3:55 PM,37.4,34.2,88,29.40,2.0,ENE,3.5,-,0.04,Rain,Rain,70,2013-02-26 20:55:00
4:15 PM,37.6,34.7,89,29.40,2.5,ENE,3.5,-,0.03,Rain,Rain,60,2013-02-26 21:15:00
4:35 PM,37.4,34.7,90,29.39,4.0,ENE,4.6,-,0.05,Rain,Light Rain,70,2013-02-26 21:35:00
4:55 PM,37.6,34.7,89,29.39,4.0,NE,5.8,-,0.06,Rain,Light Rain,40,2013-02-26 21:55:00
5:15 PM,37.4,34.3,89,29.40,4.0,ENE,3.5,-,N/A,Rain,Light Rain,60,2013-02-26 22:15:00
5:35 PM,37.4,34.7,90,29.41,4.0,Calm,Calm,-,0.01,Rain,Light Rain,0,2013-02-26 22:35:00
5:55 PM,36.9,34.0,89,29.41,2.0,NE,3.5,-,0.02,Rain,Light Rain,40,2013-02-26 22:55:00
6:15 PM,37.4,34.7,90,29.42,3.0,Calm,Calm,-,N/A,,Light Drizzle,0,2013-02-26 23:15:00
6:35 PM,36.9,34.0,89,29.42,3.0,Calm,Calm,-,0.01,Rain,Light Rain,0,2013-02-26 23:35:00
6:55 PM,36.9,34.0,89,29.42,1.5,Calm,Calm,-,0.01,,Light Drizzle,0,2013-02-26 23:55:00
7:15 PM,36.7,33.8,89,29.43,1.0,Calm,Calm,-,0.01,Rain,Light Rain,0,2013-02-27 00:15:00
7:35 PM,36.5,33.8,90,29.44,1.0,Calm,Calm,-,0.02,Rain,Light Rain,0,2013-02-27 00:35:00
7:55 PM,36.5,33.8,90,29.44,0.8,Calm,Calm,-,0.02,,Drizzle,0,2013-02-27 00:55:00
8:15 PM,36.5,33.8,90,29.45,0.8,Calm,Calm,-,N/A,,Drizzle,0,2013-02-27 01:15:00
8:35 PM,36.5,33.8,90,29.46,0.8,Calm,Calm,-,0.01,Rain,Light Rain,0,2013-02-27 01:35:00
8:55 PM,36.9,34.2,90,29.46,1.0,Calm,Calm,-,0.02,Rain,Light Rain,0,2013-02-27 01:55:00
9:15 PM,38.1,35.4,90,29.46,1.8,SW,6.9,-,N/A,,Drizzle,230,2013-02-27 02:15:00
9:35 PM,39.7,37.0,90,29.46,4.0,SW,9.2,-,N/A,,Light Drizzle,230,2013-02-27 02:35:00
9:55 PM,39.9,37.2,90,29.46,5.0,SW,11.5,17.3,N/A,,Overcast,230,2013-02-27 02:55:00
10:15 PM,39.7,37.0,90,29.46,7.0,WSW,10.4,-,N/A,,Overcast,240,2013-02-27 03:15:00
10:35 PM,39.4,36.7,90,29.46,7.0,SW,9.2,-,N/A,,Overcast,230,2013-02-27 03:35:00
10:55 PM,39.7,37.0,90,29.46,5.0,SW,11.5,-,N/A,,Overcast,220,2013-02-27 03:55:00
11:15 PM,40.1,37.4,90,29.46,7.0,SW,10.4,-,N/A,,Overcast,230,2013-02-27 04:15:00
11:35 PM,40.1,37.2,89,29.47,7.0,SW,10.4,-,N/A,,Overcast,220,2013-02-27 04:35:00
11:55 PM,40.1,37.4,90,29.47,7.0,SW,10.4,-,N/A,,Overcast,230,2013-02-27 04:55:00